ASA1179 KCOS-KSLC

Flight info

Callsign ASA1179
Flight time 1h 43m
Altitude 17000
Route DRAKE V83 PUB/N0471F340 HBU HELPR PITTT1
Aircraft B38M/M-SDE1FGHILORVWXY/HB1

Departure

Time 2026-05-05 03:34
Airport City of Colorado Springs Municipal Airport (KCOS)

Arrival

Time 2026-05-05 05:18
Airport Salt Lake City International Airport (KSLC)
Time Latitude Longitude Altitude Speed Heading
2026-05-05 03:00 38.79801 -104.70165 6195 ft 0 kts 108°
2026-05-05 03:16 38.79802 -104.70166 6195 ft 0 kts 108°
2026-05-05 03:16 38.79802 -104.70169 6195 ft 1 kts 108°
2026-05-05 03:16 38.79804 -104.70176 6195 ft 1 kts 129°
2026-05-05 03:17 38.79810 -104.70183 6195 ft 1 kts 134°
2026-05-05 03:17 38.79816 -104.70193 6193 ft 1 kts 95°
2026-05-05 03:17 38.79815 -104.70206 6192 ft 2 kts 52°
2026-05-05 03:17 38.79807 -104.70215 6194 ft 2 kts
2026-05-05 03:18 38.79802 -104.70216 6192 ft 0 kts 355°
2026-05-05 03:23 38.79806 -104.70217 6194 ft 2 kts 354°
2026-05-05 03:24 38.79839 -104.70222 6195 ft 8 kts 353°
2026-05-05 03:24 38.79916 -104.70234 6195 ft 13 kts 352°
2026-05-05 03:24 38.80017 -104.70243 6195 ft 16 kts
2026-05-05 03:24 38.80077 -104.70149 6195 ft 16 kts 87°
2026-05-05 03:25 38.80077 -104.70000 6195 ft 17 kts 90°
2026-05-05 03:25 38.80075 -104.69851 6195 ft 16 kts 91°
2026-05-05 03:25 38.80100 -104.69728 6193 ft 10 kts 33°
2026-05-05 03:25 38.80154 -104.69724 6195 ft 10 kts 359°
2026-05-05 03:26 38.80244 -104.69720 6195 ft 15 kts 16°
2026-05-05 03:26 38.80279 -104.69589 6195 ft 19 kts 90°
2026-05-05 03:26 38.80279 -104.69397 6195 ft 23 kts 90°
2026-05-05 03:26 38.80279 -104.69188 6195 ft 24 kts 91°
2026-05-05 03:27 38.80279 -104.68978 6195 ft 24 kts 90°
2026-05-05 03:27 38.80265 -104.68795 6195 ft 12 kts 135°
2026-05-05 03:27 38.80190 -104.68787 6195 ft 14 kts 180°
2026-05-05 03:27 38.80074 -104.68787 6195 ft 20 kts 180°
2026-05-05 03:28 38.79920 -104.68788 6195 ft 24 kts 180°
2026-05-05 03:28 38.79750 -104.68789 6195 ft 25 kts 180°
2026-05-05 03:28 38.79577 -104.68790 6194 ft 25 kts 181°
2026-05-05 03:28 38.79402 -104.68790 6194 ft 25 kts 179°
2026-05-05 03:29 38.79227 -104.68790 6194 ft 25 kts 180°
2026-05-05 03:29 38.79053 -104.68789 6195 ft 25 kts 180°
2026-05-05 03:29 38.78881 -104.68790 6195 ft 24 kts 180°
2026-05-05 03:29 38.78717 -104.68789 6196 ft 23 kts 179°
2026-05-05 03:30 38.78554 -104.68789 6195 ft 24 kts 180°
2026-05-05 03:30 38.78387 -104.68790 6195 ft 24 kts 180°
2026-05-05 03:30 38.78217 -104.68792 6194 ft 25 kts 180°
2026-05-05 03:30 38.78051 -104.68790 6194 ft 22 kts 180°
2026-05-05 03:31 38.77922 -104.68759 6194 ft 16 kts 121°
2026-05-05 03:31 38.77916 -104.68724 6194 ft 0 kts 94°
2026-05-05 03:32 38.77916 -104.68723 6194 ft 0 kts 94°
2026-05-05 03:32 38.77915 -104.68707 6194 ft 5 kts 92°
2026-05-05 03:32 38.77915 -104.68634 6192 ft 10 kts 87°
2026-05-05 03:33 38.77948 -104.68582 6192 ft 4 kts 12°
2026-05-05 03:33 38.77962 -104.68582 6192 ft 0 kts 359°
2026-05-05 03:33 38.78016 -104.68583 6192 ft 35 kts 360°
2026-05-05 03:34 38.78536 -104.68582 6197 ft 111 kts
2026-05-05 03:34 38.79520 -104.68571 6246 ft 168 kts
2026-05-05 03:34 38.80785 -104.68572 6830 ft 195 kts
2026-05-05 03:34 38.82217 -104.68549 7224 ft 215 kts
2026-05-05 03:35 38.83787 -104.68305 7735 ft 238 kts 18°
2026-05-05 03:35 38.85323 -104.67620 8804 ft 228 kts 19°
2026-05-05 03:35 38.86798 -104.66967 9757 ft 227 kts 18°
2026-05-05 03:35 38.88386 -104.66296 10015 ft 254 kts 18°
2026-05-05 03:36 38.90193 -104.65549 10014 ft 292 kts 18°
2026-05-05 03:36 38.92192 -104.64725 10181 ft 312 kts 18°
2026-05-05 03:36 38.94279 -104.63875 10066 ft 319 kts 17°
2026-05-05 03:36 38.96393 -104.63031 9992 ft 319 kts 17°
2026-05-05 03:37 38.98532 -104.62181 9998 ft 321 kts 17°
2026-05-05 03:37 39.00664 -104.61340 9991 ft 321 kts 17°
2026-05-05 03:37 39.02800 -104.60500 9989 ft 320 kts 17°
2026-05-05 03:37 39.04946 -104.59653 9981 ft 323 kts 17°
2026-05-05 03:38 39.07087 -104.58808 9956 ft 323 kts 17°
2026-05-05 03:38 39.09237 -104.57962 9940 ft 321 kts 17°
2026-05-05 03:38 39.11349 -104.57133 9929 ft 323 kts 18°
2026-05-05 03:38 39.13499 -104.56296 9911 ft 323 kts 17°
2026-05-05 03:39 39.15657 -104.55462 9895 ft 323 kts 18°
2026-05-05 03:39 39.17807 -104.54632 9881 ft 323 kts 18°
2026-05-05 03:39 39.19964 -104.53801 9861 ft 323 kts 17°
2026-05-05 03:39 39.22126 -104.52970 9858 ft 324 kts 18°
2026-05-05 03:40 39.24281 -104.52140 9839 ft 323 kts 17°
2026-05-05 03:40 39.26435 -104.51308 9825 ft 322 kts 17°
2026-05-05 03:40 39.28586 -104.50479 9809 ft 323 kts 17°
2026-05-05 03:40 39.30739 -104.49647 9798 ft 323 kts 17°
2026-05-05 03:41 39.32821 -104.48557 9780 ft 323 kts 32°
2026-05-05 03:41 39.34484 -104.46749 9778 ft 305 kts 50°
2026-05-05 03:41 39.35524 -104.44459 9774 ft 289 kts 71°
2026-05-05 03:41 39.35851 -104.41965 9773 ft 278 kts 92°
2026-05-05 03:42 39.35446 -104.39541 9851 ft 279 kts 114°
2026-05-05 03:42 39.34335 -104.37479 10469 ft 284 kts 132°
2026-05-05 03:42 39.32808 -104.35832 11271 ft 289 kts 148°
2026-05-05 03:42 39.30966 -104.34780 12066 ft 292 kts 167°
2026-05-05 03:43 39.28952 -104.34488 12863 ft 292 kts 186°
2026-05-05 03:43 39.26955 -104.34788 13782 ft 285 kts 191°
2026-05-05 03:43 39.25011 -104.35123 14692 ft 280 kts 189°
2026-05-05 03:43 39.23076 -104.35324 15481 ft 279 kts 187°
2026-05-05 03:44 39.21136 -104.35474 16194 ft 280 kts 188°
2026-05-05 03:44 39.19191 -104.35657 16890 ft 281 kts 189°
2026-05-05 03:44 39.17262 -104.35860 17554 ft 283 kts 189°
2026-05-05 03:44 39.15268 -104.36062 18216 ft 285 kts 189°
2026-05-05 03:45 39.13312 -104.36254 18751 ft 287 kts 189°
2026-05-05 03:45 39.11304 -104.36451 19267 ft 291 kts 189°
2026-05-05 03:45 39.09275 -104.36651 19803 ft 294 kts 190°
2026-05-05 03:45 39.07223 -104.36855 20352 ft 297 kts 190°
2026-05-05 03:46 39.05150 -104.37060 20852 ft 300 kts 190°
2026-05-05 03:46 39.03054 -104.37266 21381 ft 304 kts 190°
2026-05-05 03:46 39.00938 -104.37475 21906 ft 307 kts 190°
2026-05-05 03:46 38.98799 -104.37686 22416 ft 310 kts 191°
2026-05-05 03:47 38.96639 -104.37899 22940 ft 313 kts 191°
2026-05-05 03:47 38.94458 -104.38114 23439 ft 316 kts 191°
2026-05-05 03:47 38.92251 -104.38331 23853 ft 319 kts 191°
2026-05-05 03:47 38.90031 -104.38548 24252 ft 321 kts 192°
2026-05-05 03:48 38.87792 -104.38768 24658 ft 324 kts 193°
2026-05-05 03:48 38.85537 -104.38991 25064 ft 326 kts 193°
2026-05-05 03:48 38.83266 -104.39214 25470 ft 329 kts 194°
2026-05-05 03:48 38.80973 -104.39438 25872 ft 331 kts 194°
2026-05-05 03:49 38.78670 -104.39664 26272 ft 333 kts 194°
2026-05-05 03:49 38.76352 -104.39891 26659 ft 335 kts 195°
2026-05-05 03:49 38.74016 -104.40120 27051 ft 338 kts 195°
2026-05-05 03:49 38.71665 -104.40350 27424 ft 340 kts 196°
2026-05-05 03:50 38.69308 -104.40580 27817 ft 342 kts 196°
2026-05-05 03:50 38.66917 -104.40813 28121 ft 344 kts 198°
2026-05-05 03:50 38.64521 -104.41048 28525 ft 346 kts 198°
2026-05-05 03:50 38.62111 -104.41284 28932 ft 349 kts 198°
2026-05-05 03:51 38.59674 -104.41476 29331 ft 354 kts 196°
2026-05-05 03:51 38.57202 -104.41588 29712 ft 356 kts 197°
2026-05-05 03:51 38.54719 -104.41712 30048 ft 358 kts 197°
2026-05-05 03:51 38.52227 -104.41838 30391 ft 359 kts 197°
2026-05-05 03:52 38.49722 -104.41959 30737 ft 360 kts 198°
2026-05-05 03:52 38.47213 -104.42079 31113 ft 361 kts 198°
2026-05-05 03:52 38.44730 -104.42292 31463 ft 350 kts 205°
2026-05-05 03:52 38.42435 -104.42920 31869 ft 335 kts 212°
2026-05-05 03:53 38.40295 -104.43934 32361 ft 321 kts 220°
2026-05-05 03:53 38.38366 -104.45262 32782 ft 310 kts 226°
2026-05-05 03:53 38.36655 -104.46851 33186 ft 300 kts 233°
2026-05-05 03:53 38.35167 -104.48653 33585 ft 291 kts 238°
2026-05-05 03:54 38.33905 -104.50612 33778 ft 281 kts 244°
2026-05-05 03:54 38.32882 -104.52675 33771 ft 271 kts 249°
2026-05-05 03:54 38.32079 -104.54812 33763 ft 265 kts 253°
2026-05-05 03:54 38.31485 -104.57010 33769 ft 261 kts 258°
2026-05-05 03:55 38.31094 -104.59254 33774 ft 259 kts 262°
2026-05-05 03:55 38.30902 -104.61532 33761 ft 258 kts 266°
2026-05-05 03:55 38.30911 -104.63816 33770 ft 259 kts 271°
2026-05-05 03:55 38.31070 -104.66100 33761 ft 259 kts 272°
2026-05-05 03:56 38.31225 -104.68380 33753 ft 258 kts 271°
2026-05-05 03:56 38.31379 -104.70663 33752 ft 261 kts 271°
2026-05-05 03:56 38.31540 -104.73009 33754 ft 272 kts 272°
2026-05-05 03:56 38.31709 -104.75454 33747 ft 283 kts 272°
2026-05-05 03:57 38.31885 -104.77995 33742 ft 293 kts 272°
2026-05-05 03:57 38.32065 -104.80626 33737 ft 304 kts 272°
2026-05-05 03:57 38.32443 -104.86167 33720 ft 324 kts 272°
2026-05-05 03:58 38.32842 -104.92054 33698 ft 342 kts 272°
2026-05-05 03:58 38.33253 -104.98133 33711 ft 346 kts 272°
2026-05-05 03:59 38.33591 -105.03214 33718 ft 347 kts 272°
2026-05-05 03:59 38.33997 -105.09337 33624 ft 347 kts 272°
2026-05-05 04:00 38.34400 -105.15460 33630 ft 347 kts 272°
2026-05-05 04:00 38.34797 -105.21561 33627 ft 345 kts 272°
2026-05-05 04:01 38.35191 -105.27645 33564 ft 345 kts 272°
2026-05-05 04:01 38.35584 -105.33780 33563 ft 349 kts 272°
2026-05-05 04:02 38.35976 -105.39932 33594 ft 348 kts 271°
2026-05-05 04:02 38.36364 -105.46082 33599 ft 348 kts 271°
2026-05-05 04:03 38.36749 -105.52240 33636 ft 348 kts 271°
2026-05-05 04:03 38.37130 -105.58387 33642 ft 349 kts 271°
2026-05-05 04:04 38.37509 -105.64535 33653 ft 348 kts 271°
2026-05-05 04:04 38.37883 -105.70683 33672 ft 350 kts 271°
2026-05-05 04:05 38.38258 -105.76876 33678 ft 350 kts 271°
2026-05-05 04:05 38.38628 -105.83062 33704 ft 350 kts 271°
2026-05-05 04:06 38.38996 -105.89251 33701 ft 350 kts 271°
2026-05-05 04:06 38.39360 -105.95440 33887 ft 350 kts 271°
2026-05-05 04:07 38.39721 -106.01639 33907 ft 352 kts 270°
2026-05-05 04:07 38.40082 -106.07876 33907 ft 352 kts 271°
2026-05-05 04:08 38.40438 -106.14091 33902 ft 352 kts 270°
2026-05-05 04:08 38.40790 -106.20307 33885 ft 351 kts 270°
2026-05-05 04:09 38.41139 -106.26514 33885 ft 352 kts 270°
2026-05-05 04:09 38.41485 -106.32734 33863 ft 351 kts 270°
2026-05-05 04:10 38.41828 -106.38962 33899 ft 353 kts 270°
2026-05-05 04:10 38.42167 -106.45138 33857 ft 348 kts 270°
2026-05-05 04:11 38.42495 -106.51255 33855 ft 348 kts 270°
2026-05-05 04:11 38.42826 -106.57410 33856 ft 348 kts 270°
2026-05-05 04:12 38.43151 -106.63564 33875 ft 348 kts 270°
2026-05-05 04:12 38.43475 -106.69722 33870 ft 348 kts 270°
2026-05-05 04:13 38.43794 -106.75878 33873 ft 348 kts 270°
2026-05-05 04:13 38.44111 -106.82025 33880 ft 348 kts 270°
2026-05-05 04:14 38.44423 -106.88179 33989 ft 348 kts 270°
2026-05-05 04:14 38.44734 -106.94338 33994 ft 348 kts 270°
2026-05-05 04:15 38.45120 -107.00499 33988 ft 350 kts 274°
2026-05-05 04:15 38.46360 -107.06554 33967 ft 359 kts 283°
2026-05-05 04:16 38.48498 -107.12323 33957 ft 362 kts 287°
2026-05-05 04:16 38.50749 -107.18101 33942 ft 362 kts 287°
2026-05-05 04:17 38.52978 -107.23794 33934 ft 359 kts 287°
2026-05-05 04:17 38.55198 -107.29492 33911 ft 359 kts 287°
2026-05-05 04:18 38.57414 -107.35187 33861 ft 361 kts 288°
2026-05-05 04:18 38.59647 -107.40919 33856 ft 357 kts 287°
2026-05-05 04:19 38.61843 -107.46607 33840 ft 356 kts 287°
2026-05-05 04:19 38.64043 -107.52277 33828 ft 356 kts 287°
2026-05-05 04:20 38.66237 -107.57960 33824 ft 355 kts 287°
2026-05-05 04:20 38.68424 -107.63634 33804 ft 355 kts 288°
2026-05-05 04:21 38.70587 -107.69249 33804 ft 350 kts 288°
2026-05-05 04:21 38.72738 -107.74849 33753 ft 350 kts 286°
2026-05-05 04:22 38.74898 -107.80482 33776 ft 352 kts 287°
2026-05-05 04:22 38.77049 -107.86101 33868 ft 354 kts 287°
2026-05-05 04:23 38.79205 -107.91741 33883 ft 352 kts 287°
2026-05-05 04:23 38.81352 -107.97376 33893 ft 351 kts 287°
2026-05-05 04:24 38.83499 -108.03013 33891 ft 352 kts 287°
2026-05-05 04:25 38.86702 -108.11448 33896 ft 350 kts 288°
2026-05-05 04:25 38.88836 -108.17083 33874 ft 351 kts 288°
2026-05-05 04:26 38.90977 -108.22742 33851 ft 352 kts 288°
2026-05-05 04:26 38.93109 -108.28390 33822 ft 351 kts 287°
2026-05-05 04:27 38.95236 -108.34037 33796 ft 351 kts 287°
2026-05-05 04:27 38.97359 -108.39684 33816 ft 351 kts 287°
2026-05-05 04:28 38.99484 -108.45346 33834 ft 354 kts 287°
2026-05-05 04:28 39.01617 -108.51033 33845 ft 354 kts 288°
2026-05-05 04:29 39.03742 -108.56720 33846 ft 352 kts 287°
2026-05-05 04:29 39.05860 -108.62401 33840 ft 352 kts 287°
2026-05-05 04:30 39.07966 -108.68049 33825 ft 352 kts 286°
2026-05-05 04:30 39.10075 -108.73713 33814 ft 352 kts 286°
2026-05-05 04:31 39.12182 -108.79401 33701 ft 352 kts 285°
2026-05-05 04:31 39.14273 -108.85049 33720 ft 353 kts 287°
2026-05-05 04:32 39.16379 -108.90739 33708 ft 353 kts 286°
2026-05-05 04:32 39.18483 -108.96443 33712 ft 351 kts 285°
2026-05-05 04:33 39.20578 -109.02144 33724 ft 350 kts 286°
2026-05-05 04:33 39.22680 -109.07847 33719 ft 353 kts 287°
2026-05-05 04:34 39.24776 -109.13566 33715 ft 353 kts 286°
2026-05-05 04:34 39.26878 -109.19308 33717 ft 354 kts 286°
2026-05-05 04:35 39.28977 -109.25049 33750 ft 354 kts 286°
2026-05-05 04:35 39.31071 -109.30793 33714 ft 357 kts 286°
2026-05-05 04:36 39.33174 -109.36573 33736 ft 356 kts 286°
2026-05-05 04:36 39.35279 -109.42363 33761 ft 355 kts 286°
2026-05-05 04:37 39.37377 -109.48150 33748 ft 356 kts 286°
2026-05-05 04:37 39.38427 -109.51051 33521 ft 357 kts 286°
2026-05-05 04:37 39.39482 -109.53965 33300 ft 358 kts 286°
2026-05-05 04:37 39.40538 -109.56895 32956 ft 361 kts 287°
2026-05-05 04:38 39.41603 -109.59839 32656 ft 363 kts 287°
2026-05-05 04:38 39.42673 -109.62811 32375 ft 366 kts 288°
2026-05-05 04:38 39.43749 -109.65803 32039 ft 368 kts 290°
2026-05-05 04:38 39.44841 -109.68831 31792 ft 376 kts 289°
2026-05-05 04:39 39.45951 -109.71921 31778 ft 381 kts 289°
2026-05-05 04:39 39.48184 -109.78142 31804 ft 382 kts 290°
2026-05-05 04:40 39.50424 -109.84399 31797 ft 384 kts 289°
2026-05-05 04:40 39.52672 -109.90677 31786 ft 386 kts 289°
2026-05-05 04:41 39.54909 -109.96961 31796 ft 383 kts 289°
2026-05-05 04:41 39.57128 -110.03193 31799 ft 382 kts 288°
2026-05-05 04:42 39.59374 -110.09515 31791 ft 392 kts 290°
2026-05-05 04:42 39.61650 -110.15939 31791 ft 393 kts 290°
2026-05-05 04:43 39.63931 -110.22392 31802 ft 394 kts 290°
2026-05-05 04:43 39.66209 -110.28852 31803 ft 395 kts 290°
2026-05-05 04:44 39.68492 -110.35336 31790 ft 398 kts 290°
2026-05-05 04:44 39.70775 -110.41837 31810 ft 394 kts 289°
2026-05-05 04:45 39.73056 -110.48354 31487 ft 399 kts 290°
2026-05-05 04:45 39.74215 -110.51669 30979 ft 404 kts 290°
2026-05-05 04:45 39.75375 -110.54981 30503 ft 402 kts 291°
2026-05-05 04:45 39.76532 -110.58297 30045 ft 402 kts 291°
2026-05-05 04:46 39.77686 -110.61609 29515 ft 402 kts 291°
2026-05-05 04:46 39.78448 -110.63797 29146 ft 401 kts 291°
2026-05-05 04:46 39.79597 -110.67096 28614 ft 400 kts 291°
2026-05-05 04:46 39.80740 -110.70387 28088 ft 398 kts 291°
2026-05-05 04:47 39.82378 -110.74641 27413 ft 399 kts 298°
2026-05-05 04:47 39.83854 -110.77691 26921 ft 397 kts 300°
2026-05-05 04:47 39.85296 -110.80723 26530 ft 389 kts 297°
2026-05-05 04:47 39.86503 -110.83818 26194 ft 379 kts 291°
2026-05-05 04:48 39.87218 -110.85926 25889 ft 375 kts 291°
2026-05-05 04:48 39.88284 -110.88956 25434 ft 371 kts 293°
2026-05-05 04:48 39.89448 -110.91946 24958 ft 369 kts 295°
2026-05-05 04:48 39.90615 -110.94909 24485 ft 366 kts 294°
2026-05-05 04:49 39.91732 -110.97879 24030 ft 364 kts 294°
2026-05-05 04:49 39.92832 -111.00849 23560 ft 363 kts 294°
2026-05-05 04:49 39.93944 -111.03797 23039 ft 361 kts 294°
2026-05-05 04:49 39.95058 -111.06724 22529 ft 359 kts 294°
2026-05-05 04:50 39.96157 -111.09635 22019 ft 357 kts 294°
2026-05-05 04:50 39.97246 -111.12539 21542 ft 355 kts 294°
2026-05-05 04:50 39.98328 -111.15420 21050 ft 353 kts 294°
2026-05-05 04:50 39.99404 -111.18282 20582 ft 351 kts 294°
2026-05-05 04:51 40.00476 -111.21136 20119 ft 349 kts 294°
2026-05-05 04:51 40.01540 -111.23973 19668 ft 347 kts 294°
2026-05-05 04:51 40.02596 -111.26795 19223 ft 345 kts 294°
2026-05-05 04:51 40.03644 -111.29594 18878 ft 341 kts 294°
2026-05-05 04:52 40.04681 -111.32367 18838 ft 340 kts 294°
2026-05-05 04:52 40.05713 -111.35132 18837 ft 340 kts 294°
2026-05-05 04:52 40.06749 -111.37908 18836 ft 340 kts 294°
2026-05-05 04:52 40.07785 -111.40687 18817 ft 340 kts 294°
2026-05-05 04:53 40.08805 -111.43425 18815 ft 340 kts 294°
2026-05-05 04:53 40.09839 -111.46204 18815 ft 340 kts 294°
2026-05-05 04:53 40.10873 -111.48984 18817 ft 340 kts 294°
2026-05-05 04:53 40.11907 -111.51767 18817 ft 341 kts 294°
2026-05-05 04:54 40.12939 -111.54548 18790 ft 340 kts 294°
2026-05-05 04:54 40.13965 -111.57319 18796 ft 339 kts 294°
2026-05-05 04:54 40.14993 -111.60098 18789 ft 339 kts 294°
2026-05-05 04:54 40.16018 -111.62872 18788 ft 339 kts 294°
2026-05-05 04:55 40.17044 -111.65649 18662 ft 339 kts 293°
2026-05-05 04:55 40.18067 -111.68423 18416 ft 339 kts 293°
2026-05-05 04:55 40.19089 -111.71194 18110 ft 338 kts 293°
2026-05-05 04:55 40.20110 -111.73960 17838 ft 337 kts 293°
2026-05-05 04:56 40.21126 -111.76718 17629 ft 336 kts 293°
2026-05-05 04:56 40.22138 -111.79469 17366 ft 335 kts 294°
2026-05-05 04:56 40.23147 -111.82212 17086 ft 334 kts 294°
2026-05-05 04:56 40.24147 -111.84932 17017 ft 330 kts 294°
2026-05-05 04:57 40.25141 -111.87640 17010 ft 330 kts 294°
2026-05-05 04:57 40.26132 -111.90345 17005 ft 330 kts 294°
2026-05-05 04:57 40.27192 -111.93005 17000 ft 331 kts 302°
2026-05-05 04:57 40.28752 -111.95222 16995 ft 334 kts 321°
2026-05-05 04:58 40.30723 -111.96841 16906 ft 335 kts 331°
2026-05-05 04:58 40.32818 -111.98176 16657 ft 334 kts 333°
2026-05-05 04:58 40.34884 -111.99541 16403 ft 331 kts 329°
2026-05-05 04:58 40.36861 -112.01069 16156 ft 329 kts 327°
2026-05-05 04:59 40.38811 -112.02628 15906 ft 328 kts 328°
2026-05-05 04:59 40.40785 -112.04120 15648 ft 327 kts 330°
2026-05-05 04:59 40.42898 -112.05192 15395 ft 328 kts 346°
2026-05-05 04:59 40.45157 -112.05575 15150 ft 327 kts 355°
2026-05-05 05:00 40.47430 -112.05718 14899 ft 327 kts 356°
2026-05-05 05:00 40.49662 -112.05924 14660 ft 325 kts 353°
2026-05-05 05:00 40.51905 -112.06267 14418 ft 323 kts 351°
2026-05-05 05:00 40.54113 -112.06604 14256 ft 316 kts 353°
2026-05-05 05:01 40.56285 -112.06884 14085 ft 311 kts 354°
2026-05-05 05:01 40.58424 -112.07152 13880 ft 307 kts 353°
2026-05-05 05:01 40.60541 -112.07436 13659 ft 304 kts 353°
2026-05-05 05:01 40.62639 -112.07723 13391 ft 302 kts 353°
2026-05-05 05:02 40.64727 -112.07996 13126 ft 301 kts 354°
2026-05-05 05:02 40.66807 -112.08228 12846 ft 299 kts 354°
2026-05-05 05:02 40.68877 -112.08453 12578 ft 298 kts 353°
2026-05-05 05:02 40.70938 -112.08692 12283 ft 297 kts 353°
2026-05-05 05:03 40.72986 -112.08938 12031 ft 295 kts 354°
2026-05-05 05:03 40.75006 -112.09173 11830 ft 290 kts 354°
2026-05-05 05:03 40.77008 -112.09408 11563 ft 288 kts 354°
2026-05-05 05:03 40.79003 -112.09647 11339 ft 287 kts 354°
2026-05-05 05:04 40.80991 -112.09883 11083 ft 286 kts 354°
2026-05-05 05:04 40.82963 -112.10116 10961 ft 282 kts 354°
2026-05-05 05:04 40.84920 -112.10346 10969 ft 282 kts 354°
2026-05-05 05:04 40.86873 -112.10577 10951 ft 281 kts 354°
2026-05-05 05:05 40.88820 -112.10805 10945 ft 281 kts 353°
2026-05-05 05:05 40.90767 -112.11036 10941 ft 281 kts 354°
2026-05-05 05:05 40.92711 -112.11267 10933 ft 281 kts 354°
2026-05-05 05:05 40.94656 -112.11497 10929 ft 280 kts 354°
2026-05-05 05:06 40.96598 -112.11726 10941 ft 280 kts 354°
2026-05-05 05:06 40.98517 -112.11954 10950 ft 280 kts 354°
2026-05-05 05:06 41.00455 -112.12183 10953 ft 278 kts 353°
2026-05-05 05:06 41.02340 -112.12407 10955 ft 266 kts 353°
2026-05-05 05:07 41.04101 -112.12614 10983 ft 244 kts 353°
2026-05-05 05:07 41.05804 -112.12818 10977 ft 245 kts 354°
2026-05-05 05:07 41.07485 -112.13025 10999 ft 241 kts 352°
2026-05-05 05:07 41.09151 -112.13237 10991 ft 241 kts 355°
2026-05-05 05:08 41.10830 -112.13415 10985 ft 242 kts 354°
2026-05-05 05:08 41.12509 -112.13610 10958 ft 242 kts 354°
2026-05-05 05:08 41.14172 -112.13422 10960 ft 243 kts 17°
2026-05-05 05:08 41.15643 -112.12337 10967 ft 244 kts 41°
2026-05-05 05:09 41.16651 -112.10539 10972 ft 246 kts 66°
2026-05-05 05:09 41.17023 -112.08330 10967 ft 247 kts 91°
2026-05-05 05:09 41.16687 -112.06126 10978 ft 244 kts 115°
2026-05-05 05:09 41.15788 -112.04219 10972 ft 244 kts 128°
2026-05-05 05:10 41.14719 -112.02476 10996 ft 243 kts 138°
2026-05-05 05:10 41.13306 -112.01305 10994 ft 240 kts 162°
2026-05-05 05:10 41.11702 -112.00998 10994 ft 225 kts 184°
2026-05-05 05:10 41.10220 -112.01056 10977 ft 200 kts 181°
2026-05-05 05:11 41.08895 -112.00986 10978 ft 186 kts 177°
2026-05-05 05:11 41.07599 -112.00833 10982 ft 186 kts 175°
2026-05-05 05:11 41.06324 -112.00675 10968 ft 182 kts 176°
2026-05-05 05:11 41.05081 -112.00527 10793 ft 180 kts 175°
2026-05-05 05:12 41.03833 -112.00381 10406 ft 179 kts 176°
2026-05-05 05:12 41.02588 -112.00237 9968 ft 180 kts 176°
2026-05-05 05:12 41.01348 -112.00092 9430 ft 178 kts 176°
2026-05-05 05:12 41.00124 -111.99949 8694 ft 175 kts 176°
2026-05-05 05:13 40.98923 -111.99810 8020 ft 172 kts 176°
2026-05-05 05:13 40.97730 -111.99670 7414 ft 171 kts 176°
2026-05-05 05:13 40.96547 -111.99532 6804 ft 171 kts 176°
2026-05-05 05:13 40.95393 -111.99398 6395 ft 163 kts 175°
2026-05-05 05:14 40.94315 -111.99295 6180 ft 145 kts 176°
2026-05-05 05:14 40.93283 -111.99223 6180 ft 153 kts 176°
2026-05-05 05:14 40.92175 -111.99105 6134 ft 163 kts 173°
2026-05-05 05:14 40.91038 -111.98922 6167 ft 165 kts 171°
2026-05-05 05:15 40.89881 -111.98729 6173 ft 171 kts 173°
2026-05-05 05:15 40.88658 -111.98587 5930 ft 179 kts 175°
2026-05-05 05:15 40.87444 -111.98500 5467 ft 170 kts 175°
2026-05-05 05:15 40.86351 -111.98390 5252 ft 144 kts 175°
2026-05-05 05:16 40.85375 -111.98270 5107 ft 144 kts 172°
2026-05-05 05:16 40.84359 -111.98127 4953 ft 148 kts 173°
2026-05-05 05:16 40.83333 -111.97979 4665 ft 142 kts 172°
2026-05-05 05:16 40.82394 -111.97894 4608 ft 135 kts 174°
2026-05-05 05:17 40.81453 -111.97782 4451 ft 135 kts 170°
2026-05-05 05:17 40.80514 -111.97665 4269 ft 134 kts 173°
2026-05-05 05:17 40.79687 -111.97562 4229 ft 100 kts 175°
2026-05-05 05:17 40.79131 -111.97504 4233 ft 61 kts 176°
2026-05-05 05:18 40.78781 -111.97470 4234 ft 40 kts 174°
2026-05-05 05:18 40.78562 -111.97510 4230 ft 21 kts 201°
2026-05-05 05:18 40.78466 -111.97581 4229 ft 9 kts 235°
2026-05-05 05:18 40.78453 -111.97666 4227 ft 10 kts 265°
2026-05-05 05:19 40.78476 -111.97739 4228 ft 8 kts 332°
2026-05-05 05:19 40.78524 -111.97752 4230 ft 7 kts 353°
2026-05-05 05:19 40.78572 -111.97758 4230 ft 8 kts 355°
2026-05-05 05:19 40.78641 -111.97766 4234 ft 12 kts 356°
2026-05-05 05:20 40.78735 -111.97784 4232 ft 14 kts 327°
2026-05-05 05:20 40.78746 -111.97893 4234 ft 13 kts 269°
2026-05-05 05:20 40.78739 -111.98033 4234 ft 17 kts 263°
2026-05-05 05:20 40.78724 -111.98204 4232 ft 20 kts 264°
2026-05-05 05:21 40.78704 -111.98313 4232 ft 5 kts 198°
2026-05-05 05:21 40.78679 -111.98314 4234 ft 0 kts 179°
2026-05-05 05:21 40.78666 -111.98314 4163 ft 6 kts 182°
2026-05-05 05:21 40.78648 -111.98315 4164 ft 0 kts 180°